Miscellaneous Local Product
Issued by NWS North Platte, NE

Home | Current Version | Previous Version | Text Only | Print | Product List | Glossary On
Versions: 1 2 3 4 5 6 7 8 9 10 11 12 13 14 15 16 17 18 19 20 21 22 23 24 25 26 27 28 29 30 31 32 33 34 35 36 37 38 39 40 41 42 43 44 45 46 47 48 49 50
000
AXUS43 KLBF 271610
MISLBF


WESTERN AND NORTH CENTRAL NEBRASKA HOURLY WEATHER ROUNDUP
NATIONAL WEATHER SERVICE NORTH PLATTE NE
1100 AM CDT SUN JUL 27 2014

***STATIONS NOT REPORTING VARIABLES SUCH AS SKY/WEATHER OR
PRESSURE ARE PROVIDED BY THE NEBRASKA DEPARTMENT OF
ROADS...RAWS...AND APRS NETWORKS...AND ARE NOT UNDER
NATIONAL WEATHER SERVICE QUALITY CONTROL***

...OBSERVATIONS IN AND NEAR THE EASTERN PANHANDLE OF NEBRASKA...

CITY           SKY/WX    TMP DP  RH WIND       PRES   REMARKS
PINE RIDGE     SUNNY     71  50  47 W6        30.33R
CHADRON        SUNNY     73  47  39 CALM      30.33S
ALLIANCE       MOSUNNY   75  44  33 VRB7      30.34S
SIDNEY         MOSUNNY   76  46  34 E12G17    30.37R
WHITECLAY        N/A     73  49  42 E8          N/A
RUSHVILLE        N/A     73  43  33 W13         N/A
GORDON           N/A     74  53  47 W12         N/A
CRESCENT LAKE    N/A     75  47  37 NE6         N/A
LISCO            N/A     78  42  27 CALM        N/A
BIG SPRINGS      N/A     69  60  72 E3          N/A
$$

...OBSERVATIONS IN NORTH CENTRAL NEBRASKA...

CITY           SKY/WX    TMP DP  RH WIND       PRES   REMARKS
VALENTINE      SUNNY     76  51  41 N17       30.26R
THEDFORD       SUNNY     76  50  40 NW12      30.29R
AINSWORTH      SUNNY     73  53  50 N13       30.24S
O`NEILL        SUNNY     75  50  41 NW20G28   30.20R
ORD            SUNNY     75  53  46 NW14      30.21R
BROKEN BOW     SUNNY     77  52  41 N13G23    30.24S
BROWNLEE         N/A     77  48  35 NW20        N/A
SPRINGVIEW       N/A     74  55  51 N10G17      N/A
DUNNING          N/A     75  49  39 N16         N/A
ROSE             N/A     78  59  51 W13         N/A
NEWPORT          N/A     77  57  50 NW14        N/A
SARGENT          N/A     75  53  46 CALM        N/A
COMSTOCK         N/A     81  54  39 W10         N/A
CHAMBERS         N/A     78  54  43 N6          N/A
$$

...OBSERVATIONS IN SOUTHWEST NEBRASKA AND FAR NORTHEAST COLORADO...

CITY           SKY/WX    TMP DP  RH WIND       PRES   REMARKS
WRAY             N/A     79  47  32 NE10G17   30.32R
HOLYOKE        CLOUDY    79  50  36 E13       30.33R
IMPERIAL       LGT RAIN  78  49  35 NE16      30.30R
OGALLALA       CLOUDY    71  51  47 NE7       30.32S
NORTH PLATTE   SUNNY     75  54  47 W6        30.28S
MCCOOK         MOSUNNY   80  52  37 NE14      30.27R
LEXINGTON      SUNNY     78  51  38 N7        30.26R
PAXTON           N/A     67  56  67 CALM        N/A
SUTHERLAND       N/A     79  55  42 CALM        N/A
BRADY            N/A     77  50  38 CALM        N/A
GOTHENBURG       N/A     73  53  48 CALM        N/A
CALLAWAY         N/A     70  58  66 N9          N/A
$$

...SOME WEATHER OBSERVATIONS FROM AROUND THE REGION...

CITY           SKY/WX    TMP DP  RH WIND       PRES   REMARKS
DENVER         MOSUNNY   71  58  63 W6        30.37S
LARAMIE        SUNNY     68  52  56 SE15G23   30.47S
CHEYENNE       CLOUDY    65  58  78 E8        30.44S
SCOTTSBLUFF    PTSUNNY   71  49  45 S7        30.36R
RAPID CITY     SUNNY     71  50  47 N15G23    30.32R
PIERRE         SUNNY     71  56  58 NW17      30.21R
WINNER         FAIR      75  54  47 NW22G31   30.21R
SIOUX FALLS    MOSUNNY   68  56  65 N22G29    30.09R
OMAHA          MOSUNNY   79  55  43 NW18      30.08R
GRAND ISLAND   SUNNY     80  53  39 NW14      30.20R
KANSAS CITY    PTSUNNY   82  63  52 N13       30.06R
WICHITA        LGT RAIN  79  72  79 E9        30.08R
HAYS           PTSUNNY   79  64  61 NE15G22   30.20R
LIBERAL        PTSUNNY   81  66  61 NE16G22   30.20S
GOODLAND       MOSUNNY   76  60  57 NE14      30.31R
$$



USA.gov is the U.S. government's official web portal to all federal, state and local government web resources and services.